Hourly Data Report for July 20, 2020

TORONTO CITY
ONTARIO
Current Station Operator: ECCC - MSC

43°40'00.000" N
79°24'00.000" W
112.50 m
6158355
71508
XTO

Download Data

Hourly Data (July 2020)
Hourly Data Report for July 20, 2020
TIME
LST
Temp Definition
°C
Dew Point Definition
°C
Rel Hum Definition
%
Precip. Amount Definition
mm

Wind Dir Definition
10's deg

Wind Spd Definition
km/h
Visibility Definition
km
Stn Press Definition
kPa
Hmdx Definition


Wind Chill Definition


Weather Definition


00:00 22.7 19.6 83 0.0       99.45 30   LegendNANA
01:00 24.3 19.8 76 0.0       99.49 32   LegendNANA
02:00 23.9 19.5 77 0.0       99.54 31   LegendNANA
03:00 23.2 19.3 78 0.0       99.60 30   LegendNANA
04:00 22.8 19.0 79 0.0       99.64 30   LegendNANA
05:00 22.4 18.5 79 0.0       99.67 29   LegendNANA
06:00 22.4 18.2 77 0.0       99.71 29   LegendNANA
07:00 23.2 17.6 71 0.0       99.75 29   LegendNANA
08:00 24.8 16.2 59 0.0       99.78 30   LegendNANA
09:00 26.2 15.3 51 0.0       99.79 30   LegendNANA
10:00 27.5 15.2 47 0.0       99.81 32   LegendNANA
11:00 28.3 14.3 42 0.0       99.83 32   LegendNANA
12:00 27.9 12.4 38 0.0       99.83 30   LegendNANA
13:00 29.0 11.8 35 0.0       99.84 31   LegendNANA
14:00 29.8 12.1 34 0.0       99.88 32   LegendNANA
15:00 30.2 12.2 33 0.0       99.89 33   LegendNANA
16:00 29.4 11.9 34 0.0       99.88 32   LegendNANA
17:00 27.4 13.3 42 0.0       99.90 30   LegendNANA
18:00 26.6 13.1 43 0.0       99.95 29   LegendNANA
19:00 25.3 13.2 47 0.0       100.02 28   LegendNANA
20:00 24.2 12.9 49 0.0       100.07 27   LegendNANA
21:00 22.8 12.8 53 0.0       100.16 25   LegendNANA
22:00 21.8 13.0 57 0.0       100.21 25   LegendNANA
23:00 20.8 12.7 60 0.0       100.25     LegendNANA

Notes on Data Quality.

Legend

  • E = Estimated
  • M = Missing
  • NA = Not Available*
  • [empty] = Indicates an unobserved value
Date modified: